CW9119 Weather Reports


Display with metric or nautical units.
time (UTC)temp
F
wind
direction
speed
MPH
gust
MPH
rain 1hr
in
rain 24hr
in
rain mn
in
humidity
%
barometer
mb
20260903040112 48 159 0.0 0.0 0.00 0.09 0.01 94 1018.6
20260903033109 49 159 0.0 0.0 0.00 0.09 0.01 94 1018.8
20260903032109 49 159 0.0 0.0 0.00 0.09 0.01 94 1018.8
20260903031109 49 159 0.0 0.0 0.00 0.09 0.01 94 1019.0
20260903025109 49 159 0.0 0.0 0.00 0.09 0.01 94 1019.1
20260903021109 50 159 0.0 0.0 0.00 0.09 0.01 94 1018.9
20260903020109 50 159 0.0 0.0 0.00 0.09 0.01 94 1019.1
20260903015109 50 159 0.0 0.0 0.00 0.12 0.01 94 1019.1
20260903011108 51 159 0.0 0.0 0.00 0.12 0.01 94 1019.2
20260903005111 51 159 0.0 0.0 0.00 0.12 0.01 94 1019.2
20260903002111 51 159 0.0 0.0 0.00 0.12 0.01 93 1019.3
20260902234110 52 159 0.0 0.0 0.01 0.12 0.01 93 1019.3
20260902233110 52 159 0.0 0.0 0.01 0.12 0.01 93 1019.4
20260902232110 53 159 0.0 0.0 0.01 0.12 0.01 93 1019.5
20260902231110 53 159 0.0 0.0 0.00 0.11 0.00 93 1019.4
20260902230110 53 159 0.0 0.0 0.00 0.11 0.00 93 1019.4
20260902225110 53 159 0.0 0.0 0.00 0.11 0.00 93 1019.4
20260902223110 53 159 0.0 0.0 0.00 0.11 0.00 93 1019.6
20260902222110 53 159 0.0 0.0 0.00 0.11 0.00 93 1019.5
20260902215109 54 159 0.0 0.0 0.00 0.11 0.11 92 1019.6
20260902213109 54 159 0.0 0.0 0.00 0.11 0.11 91 1019.5
20260902211109 54 159 0.0 0.0 0.00 0.11 0.11 91 1019.4
20260902205109 55 159 0.0 0.0 0.00 0.11 0.11 91 1019.4
20260902204109 55 159 0.0 0.0 0.00 0.11 0.11 90 1019.3
20260902203109 55 159 0.0 0.0 0.00 0.11 0.11 90 1019.3
20260902202109 55 159 0.0 0.0 0.02 0.11 0.11 90 1019.3
20260902201109 56 159 0.0 0.0 0.08 0.11 0.11 89 1019.3
20260902194109 57 159 0.0 0.0 0.08 0.11 0.11 89 1019.2
20260902191108 57 161 0.0 0.0 0.00 0.03 0.03 85 1018.8
20260902190112 58 161 0.0 0.0 0.00 0.03 0.03 83 1018.7
20260902181112 61 161 0.0 0.0 0.00 0.03 0.03 78 1018.4
20260902180112 62 161 0.0 0.0 0.00 0.03 0.03 76 1018.3
20260902170111 66 161 0.0 0.0 0.00 0.03 0.03 69 1018.4
20260902165111 66 161 0.0 0.0 0.00 0.03 0.03 68 1018.5
20260902162111 66 161 0.0 0.0 0.00 0.03 0.03 67 1018.6
20260902161111 66 161 0.0 0.0 0.00 0.03 0.03 67 1018.5
20260902153111 66 161 0.0 0.0 0.00 0.03 0.03 66 1018.7
20260902152111 67 161 0.0 0.0 0.00 0.03 0.03 65 1018.9
20260902145110 67 161 0.0 1.0 0.00 0.03 0.03 63 1019.1
20260902144110 68 161 0.0 0.0 0.00 0.03 0.03 64 1019.3
20260902141110 68 161 1.0 6.0 0.00 0.03 0.03 63 1019.3
20260902135110 68 157 1.0 7.0 0.00 0.03 0.03 62 1019.4
20260902134110 69 159 1.0 5.0 0.00 0.03 0.03 61 1019.5
20260902133110 69 251 3.0 8.0 0.00 0.03 0.03 64 1019.6
20260902132110 68 136 3.0 13.0 0.00 0.03 0.03 66 1019.5
20260902131110 67 309 1.0 7.0 0.00 0.03 0.03 71 1019.7
20260902130110 67 319 0.0 8.0 0.00 0.03 0.03 68 1019.8
20260902125110 67 320 0.0 1.0 0.00 0.03 0.03 69 1019.8
20260902123110 67 318 0.0 0.0 0.00 0.03 0.03 68 1019.7
20260902122110 67 317 1.0 8.0 0.00 0.03 0.03 66 1019.8
20260902121110 67 28 0.0 1.0 0.00 0.03 0.03 69 1019.9
20260902114109 67 68 0.0 4.0 0.00 0.03 0.03 67 1020.0
20260902113109 67 71 0.0 0.0 0.00 0.03 0.03 67 1020.1
20260902112109 68 71 0.0 2.0 0.00 0.03 0.03 66 1020.1
20260902110109 67 109 1.0 8.0 0.00 0.03 0.03 69 1020.4
20260902105109 68 138 2.0 8.0 0.00 0.03 0.03 67 1020.5
20260902100111 67 89 1.0 6.0 0.00 0.03 0.03 73 1020.6
20260902094111 66 340 1.0 7.0 0.00 0.03 0.03 73 1020.5
20260902093111 66 325 1.0 6.0 0.00 0.03 0.03 74 1020.4
20260902091111 66 307 0.0 2.0 0.00 0.03 0.03 75 1020.8
20260902090111 65 306 0.0 1.0 0.00 0.03 0.03 74 1020.8
20260902084111 65 299 0.0 1.0 0.00 0.03 0.03 74 1020.8
20260902083110 65 301 0.0 0.0 0.00 0.03 0.03 77 1020.8
20260902081110 64 222 0.0 1.0 0.00 0.03 0.03 81 1020.6
20260902075110 62 184 0.0 1.0 0.00 0.03 0.03 88 1020.6
20260902073110 60 165 0.0 0.0 0.00 0.03 0.03 94 1020.6
20260902071110 58 184 0.0 0.0 0.00 0.03 0.03 96 1020.5
20260902065110 57 184 0.0 0.0 0.00 0.03 0.03 96 1020.3
20260902064110 57 184 0.0 0.0 0.00 0.03 0.03 96 1020.4
20260902063110 56 184 0.0 0.0 0.00 0.03 0.03 96 1020.5
20260902060110 53 184 0.0 0.0 0.00 0.03 0.03 95 1020.1
20260902053109 52 184 0.0 0.0 0.00 0.03 0.03 95 1020.0
20260902045109 52 184 0.0 0.0 0.00 0.03 0.03 94 1019.6
20260902043109 52 184 0.0 0.0 0.00 0.03 0.03 95 1019.7